Tracking 35331 objects as of 16-Sep-2026
HD Live streaming from Space Station
objects crossing your sky now

QZS-7

Track QZS-7 now!


NORAD ID: 100270
Int'l Code: 2026-182A
Launch date: August 10, 2026
Source: Japan (JPN)
Launch site: TANEGASHIMA SPACE CENTER (TNSTA)
Your satellite tracking list
Your tracking list is empty




NASA's NSSDC Master Catalog

Two Line Element Set (TLE):
1 A0270U 26182A   26258.57711559  .00000072  00000-0  00000-0 0  9990
2 A0270   2.9576 301.0806 0074463 358.7684  87.0145  1.00290048   406
Source of the keplerian elements: AFSPC